Overview Statistics Trail Chart Weather Telemetry Raw packets
 

This is the latest recevied weather packets stored in our database for station/object K6LOT-13. If no packets are shown the sender has not sent any weather packets the latest 10 day(s).

<< 14 15 16 17 18 19 20 >>
Time Temp. Humidity Pressure Rain* Wind** Luminosity Snow
1788553062 29.44° C 47% 1014.3 hPa 0 mm - - -
1788552418 30° C 47% 1014.3 hPa 0 mm - - -
1788552112 30° C 47% 1014.3 hPa 0 mm - - -
1788551806 29.44° C 49% 1014.4 hPa 0 mm - - -
1788551499 29.44° C 48% 1014.4 hPa 0 mm - - -
1788551215 29.44° C 48% 1014.6 hPa 0 mm - - -
1788551193 29.44° C 48% 1014.5 hPa 0 mm - - -
1788550582 29.44° C 49% 1014.7 hPa 0 mm - - -
1788550569 29.44° C 49% 1014.8 hPa 0 mm - - -
1788549965 28.89° C 50% 1014.8 hPa 0 mm - - -
1788549043 28.89° C 52% 1015 hPa 0 mm - - -
1788548737 28.89° C 53% 1015.1 hPa 0 mm - - -
1788548460 28.33° C 54% 1015.2 hPa 0 mm - - -
1788547858 28.33° C 54% 1015.2 hPa 0 mm - - -
1788547509 27.78° C 55% 1015.3 hPa 0 mm - - -
1788546892 27.22° C 57% 1015.4 hPa 0 mm - - -
1788546616 27.22° C 57% 1015.3 hPa 0 mm - - -
1788545969 26.67° C 58% 1015.6 hPa 0 mm - - -
1788545659 26.67° C 58% 1015.6 hPa 0 mm - - -
1788545353 26.67° C 58% 1015.6 hPa 0 mm - - -
1788545047 26.67° C 60% 1015.6 hPa 0 mm - - -
1788544737 26.11° C 60% 1015.7 hPa 0 mm - - -
1788543814 25.56° C 63% 1015.6 hPa 0 mm - - -
1788543547 25° C 64% 1015.7 hPa 0 mm - - -
1788543386 25° C 64% 1015.6 hPa 0 mm - - -

* Rain latest hour (hover to see other rain measurements)
** Current wind speed in m/s (hover to see current wind gust speed)